FW9231 Weather Reports


Display with metric or nautical units.
time (UTC)temp
F
wind
direction
speed
MPH
gust
MPH
rain 1hr
in
rain 24hr
in
rain mn
in
humidity
%
barometer
mb
20260508184710 71 230 0.0 1.0 0.00 0.00 0.00 41 1014.2
20260508184207 71 250 1.0 1.0 0.00 0.00 0.00 42 1014.1
20260508183704 71 218 0.0 0.0 0.00 0.00 0.00 42 1014.2
20260508183200 73 240 0.0 0.0 0.00 0.00 0.00 41 1014.3
20260508182655 72 223 0.0 1.0 0.00 0.00 0.00 45 1014.3
20260508182153 71 258 0.0 1.0 0.00 0.00 0.00 46 1014.9
20260508181649 71 208 0.0 1.0 0.00 0.00 0.00 41 1014.5
20260508181146 71 220 0.0 0.0 0.00 0.00 0.00 43 1014.7
20260508180642 69 209 1.0 1.0 0.00 0.00 0.00 44 1014.5
20260508180139 69 224 0.0 0.0 0.00 0.00 0.00 46 1014.5
20260508175636 72 262 2.0 2.0 0.00 0.00 0.00 42 1014.7
20260508175132 72 226 0.0 0.0 0.00 0.00 0.00 47 1014.9
20260508174630 70 221 0.0 0.0 0.00 0.00 0.00 47 1014.7
20260508174127 69 245 1.0 1.0 0.00 0.00 0.00 44 1014.8
20260508173624 69 318 1.0 2.0 0.00 0.00 0.00 45 1015.0
20260508173120 68 234 0.0 0.0 0.00 0.00 0.00 46 1015.3
20260508172617 68 209 1.0 1.0 0.00 0.00 0.00 49 1015.4
20260508172113 66 206 1.0 1.0 0.00 0.00 0.00 56 1015.2
20260508171610 66 233 0.0 0.0 0.00 0.00 0.00 49 1015.2
20260508171107 66 218 0.0 0.0 0.00 0.00 0.00 52 1015.4
20260508170604 66 209 0.0 0.0 0.00 0.00 0.00 58 1015.5
20260508165558 67 230 0.0 0.0 0.00 0.00 0.00 47 1015.6
20260508165055 67 234 0.0 0.0 0.00 0.00 0.00 48 1015.9
20260508164551 66 205 0.0 0.0 0.00 0.00 0.00 50 1015.9
20260508164048 66 204 0.0 0.0 0.00 0.00 0.00 50 1015.8
20260508163546 65 307 2.0 2.0 0.00 0.00 0.00 52 1016.0
20260508163042 66 226 2.0 2.0 0.00 0.00 0.00 49 1016.1
20260508162539 65 227 0.0 0.0 0.00 0.00 0.00 53 1016.0
20260508162037 64 275 2.0 2.0 0.00 0.00 0.00 51 1016.1
20260508161533 65 262 3.0 3.0 0.00 0.00 0.00 51 1016.3
20260508161030 64 239 1.0 1.0 0.00 0.00 0.00 54 1016.3
20260508160529 64 216 0.0 0.0 0.00 0.00 0.00 58 1016.3
20260508160026 64 232 1.0 2.0 0.00 0.00 0.00 55 1016.3
20260508155522 64 221 0.0 0.0 0.00 0.00 0.00 53 1016.5
20260508155020 63 226 0.0 1.0 0.00 0.00 0.00 56 1016.4
20260508154517 64 228 1.0 1.0 0.00 0.00 0.00 56 1016.6
20260508154013 64 277 2.0 2.0 0.00 0.00 0.00 57 1016.6
20260508153510 63 237 1.0 1.0 0.00 0.00 0.00 58 1016.6
20260508153007 63 244 1.0 2.0 0.00 0.00 0.00 56 1016.8
20260508152504 63 231 3.0 5.0 0.00 0.00 0.00 61 1016.5
20260508151959 63 226 0.0 1.0 0.00 0.00 0.00 59 1016.6
20260508151456 63 312 2.0 3.0 0.00 0.00 0.00 60 1016.7
20260508150953 62 200 1.0 2.0 0.00 0.00 0.00 58 1016.6
20260508150450 63 225 0.0 0.0 0.00 0.00 0.00 56 1016.4
20260508145945 62 223 0.0 0.0 0.00 0.00 0.00 56 1016.5
20260508145442 62 229 1.0 1.0 0.00 0.00 0.00 56 1016.7
20260508144939 62 281 3.0 3.0 0.00 0.00 0.00 58 1016.6
20260508144436 62 226 1.0 1.0 0.00 0.00 0.00 58 1016.7
20260508143934 62 260 3.0 5.0 0.00 0.00 0.00 60 1016.6
20260508143431 62 226 1.0 2.0 0.00 0.00 0.00 62 1016.7
20260508142927 62 229 0.0 0.0 0.00 0.00 0.00 64 1016.7
20260508142425 61 226 0.0 1.0 0.00 0.00 0.00 63 1016.8
20260508141921 61 245 1.0 2.0 0.00 0.00 0.00 62 1016.8
20260508141418 62 221 2.0 3.0 0.00 0.00 0.00 62 1016.7
20260508140915 61 239 1.0 2.0 0.00 0.00 0.00 66 1016.8
20260508140412 61 234 0.0 1.0 0.00 0.00 0.00 67 1016.8
20260508135908 60 240 2.0 3.0 0.00 0.00 0.00 72 1016.7
20260508135405 60 231 1.0 1.0 0.00 0.00 0.00 73 1016.8
20260508134901 60 262 3.0 3.0 0.00 0.00 0.00 72 1016.8
20260508134357 60 228 0.0 0.0 0.00 0.00 0.00 75 1016.7
20260508133854 59 232 2.0 3.0 0.00 0.00 0.00 75 1016.8
20260508133352 59 260 3.0 5.0 0.00 0.00 0.00 76 1016.6
20260508132849 59 233 1.0 2.0 0.00 0.00 0.00 77 1016.7
20260508132347 59 231 1.0 2.0 0.00 0.00 0.00 76 1016.6
20260508131843 58 230 0.0 0.0 0.00 0.00 0.00 80 1016.5
20260508131339 58 289 3.0 3.0 0.00 0.00 0.00 79 1016.4
20260508130836 58 235 1.0 1.0 0.00 0.00 0.00 81 1016.2
20260508130332 57 228 1.0 1.0 0.00 0.00 0.00 81 1016.3
20260508125829 57 226 1.0 2.0 0.00 0.00 0.00 82 1016.3
20260508125325 56 226 0.0 0.0 0.00 0.00 0.00 85 1016.6
20260508124823 56 228 1.0 1.0 0.00 0.00 0.00 84 1016.3
20260508124320 56 232 1.0 1.0 0.00 0.00 0.00 81 1016.3
20260508123818 56 231 1.0 1.0 0.00 0.00 0.00 82 1016.2
20260508123316 57 230 1.0 2.0 0.00 0.00 0.00 83 1016.1
20260508122812 57 238 1.0 1.0 0.00 0.00 0.00 84 1016.0
20260508122309 56 237 2.0 2.0 0.00 0.00 0.00 86 1016.1
20260508121806 55 223 0.0 0.0 0.00 0.00 0.00 89 1016.0
20260508121305 55 236 1.0 2.0 0.00 0.00 0.00 90 1016.2
20260508120802 54 234 1.0 2.0 0.00 0.00 0.00 91 1015.9
20260508120300 54 228 0.0 0.0 0.00 0.00 0.00 94 1015.7
20260508115757 54 230 0.0 1.0 0.00 0.00 0.00 95 1015.5
20260508115254 53 230 1.0 1.0 0.00 0.00 0.00 95 1015.7
20260508114750 53 230 1.0 1.0 0.00 0.00 0.00 96 1015.5
20260508114247 53 230 0.0 0.0 0.00 0.00 0.00 97 1015.4
20260508113744 52 230 0.0 0.0 0.00 0.00 0.00 97 1015.3
20260508113243 52 230 0.0 1.0 0.00 0.00 0.00 98 1015.4
20260508112738 52 230 1.0 2.0 0.00 0.00 0.00 98 1015.3
20260508112235 51 230 0.0 0.0 0.00 0.00 0.00 99 1015.0
20260508111731 51 230 0.0 0.0 0.00 0.00 0.00 99 1015.1
20260508111230 51 230 0.0 0.0 0.00 0.00 0.00 99 1014.9
20260508110726 51 229 0.0 0.0 0.00 0.00 0.00 99 1014.9
20260508110223 51 229 0.0 0.0 0.00 0.00 0.00 99 1015.0
20260508105718 51 230 0.0 0.0 0.00 0.00 0.00 99 1014.8
20260508105215 51 230 0.0 0.0 0.00 0.00 0.00 99 1014.7
20260508104712 51 230 0.0 0.0 0.00 0.00 0.00 99 1014.7
20260508104209 51 230 0.0 0.0 0.00 0.00 0.00 99 1014.6
20260508103707 51 230 0.0 0.0 0.00 0.00 0.00 99 1014.5
20260508103203 51 231 1.0 1.0 0.00 0.00 0.00 99 1014.2
20260508102701 51 228 0.0 0.0 0.00 0.00 0.00 99 1014.0
20260508102159 51 228 0.0 0.0 0.00 0.00 0.00 99 1014.1
20260508101655 51 228 0.0 0.0 0.00 0.00 0.00 99 1013.9
20260508101153 51 228 0.0 0.0 0.00 0.00 0.00 99 1013.8
20260508100650 51 228 0.0 0.0 0.00 0.00 0.00 99 1013.6
20260508100148 51 228 0.0 0.0 0.00 0.00 0.00 99 1013.7
20260508095644 51 228 0.0 0.0 0.00 0.00 0.00 99 1013.8
20260508095142 51 228 0.0 0.0 0.00 0.00 0.00 99 1013.6
20260508094638 51 228 0.0 0.0 0.00 0.00 0.00 99 1013.8
20260508094135 51 228 0.0 0.0 0.00 0.00 0.00 99 1013.7
20260508093633 52 228 0.0 0.0 0.00 0.00 0.00 99 1013.7
20260508093130 52 228 0.0 0.0 0.00 0.00 0.00 99 1013.8
20260508092627 52 228 0.0 0.0 0.00 0.00 0.00 99 1013.6
20260508092126 52 228 0.0 0.0 0.00 0.00 0.00 99 1013.5
20260508091622 52 228 0.0 0.0 0.00 0.00 0.00 99 1013.6
20260508091120 52 228 0.0 0.0 0.00 0.00 0.00 99 1013.6
20260508090618 52 228 0.0 0.0 0.00 0.00 0.00 99 1013.4
20260508090115 52 228 0.0 0.0 0.00 0.00 0.00 99 1013.5
20260508085611 52 228 0.0 0.0 0.00 0.00 0.00 99 1013.4
20260508085108 52 228 0.0 0.0 0.00 0.00 0.00 99 1013.2
20260508084604 52 228 0.0 0.0 0.00 0.00 0.00 99 1013.3
20260508084102 52 228 0.0 0.0 0.00 0.00 0.00 99 1013.3
20260508083559 53 228 0.0 0.0 0.00 0.00 0.00 99 1013.3
20260508083056 53 228 0.0 0.0 0.00 0.00 0.00 99 1013.5
20260508082552 53 228 0.0 0.0 0.00 0.00 0.00 99 1013.2
20260508082049 53 228 0.0 0.0 0.00 0.00 0.00 99 1013.2
20260508081546 53 228 0.0 0.0 0.00 0.00 0.00 99 1013.3
20260508081042 53 228 0.0 0.0 0.00 0.00 0.00 99 1013.1
20260508080540 53 228 0.0 0.0 0.00 0.00 0.00 99 1013.0
20260508080037 53 228 0.0 0.0 0.00 0.00 0.00 99 1012.9
20260508075534 53 228 0.0 0.0 0.00 0.00 0.00 99 1012.9
20260508075031 53 228 0.0 0.0 0.00 0.00 0.00 99 1013.1
20260508074529 53 228 0.0 0.0 0.00 0.00 0.00 99 1013.0
20260508074026 53 228 0.0 0.0 0.00 0.00 0.00 99 1013.1
20260508073523 53 228 0.0 0.0 0.00 0.00 0.00 99 1013.2
20260508073021 53 228 0.0 0.0 0.00 0.00 0.00 99 1013.0
20260508072516 53 228 0.0 0.0 0.00 0.00 0.00 99 1012.9
20260508072014 53 228 0.0 1.0 0.00 0.00 0.00 99 1012.8
20260508071511 54 228 0.0 0.0 0.00 0.00 0.00 99 1013.0
20260508071009 54 228 0.0 0.0 0.00 0.00 0.00 99 1012.9
20260508070506 54 228 0.0 0.0 0.00 0.00 0.00 99 1012.8
20260508070005 54 228 0.0 0.0 0.00 0.00 0.00 99 1012.9
20260508065502 54 228 0.0 0.0 0.00 0.00 0.00 99 1012.8
20260508065000 54 228 0.0 0.0 0.00 0.00 0.00 98 1012.6
20260508064457 54 228 0.0 0.0 0.00 0.00 0.00 98 1012.7
20260508063955 54 228 0.0 0.0 0.00 0.00 0.00 98 1012.5
20260508063452 54 228 0.0 0.0 0.00 0.00 0.00 98 1012.6
20260508062950 54 228 0.0 0.0 0.00 0.00 0.00 98 1012.8
20260508062447 54 228 0.0 0.0 0.00 0.00 0.00 98 1012.7
20260508061944 55 228 0.0 0.0 0.00 0.00 0.00 98 1012.9
20260508061442 55 228 0.0 0.0 0.00 0.00 0.00 98 1012.7
20260508060937 55 228 0.0 0.0 0.00 0.00 0.00 98 1012.8
20260508060435 55 228 0.0 0.0 0.00 0.00 0.00 98 1012.8
20260508055931 55 228 0.0 0.0 0.00 0.00 0.00 98 1012.8
20260508055428 55 228 0.0 0.0 0.00 0.00 0.00 98 1012.8
20260508054924 55 228 0.0 0.0 0.00 0.00 0.00 98 1012.9
20260508054422 55 228 0.0 0.0 0.00 0.00 0.00 98 1012.6
20260508053919 55 228 0.0 0.0 0.00 0.00 0.00 98 1012.6
20260508053415 55 228 0.0 0.0 0.00 0.00 0.00 98 1013.0
20260508052913 56 228 0.0 0.0 0.00 0.00 0.00 98 1013.1
20260508052411 56 228 0.0 0.0 0.00 0.00 0.00 98 1012.9
20260508051906 56 228 0.0 0.0 0.00 0.00 0.00 98 1012.7
20260508051403 56 228 0.0 0.0 0.00 0.00 0.00 98 1012.9
20260508050859 56 228 0.0 0.0 0.00 0.00 0.00 98 1012.7
20260508050356 56 228 0.0 0.0 0.00 0.00 0.00 98 1012.7
20260508045851 56 228 0.0 0.0 0.00 0.00 0.00 98 1012.7
20260508045350 56 228 0.0 0.0 0.00 0.00 0.00 98 1012.7
20260508044847 57 228 0.0 0.0 0.00 0.00 0.00 98 1012.6
20260508044343 57 228 0.0 0.0 0.00 0.00 0.00 98 1012.6
20260508043839 57 228 0.0 0.0 0.00 0.00 0.00 98 1012.7
20260508043337 57 228 0.0 0.0 0.00 0.00 0.00 98 1012.5
20260508042833 57 228 0.0 0.0 0.00 0.00 0.00 98 1012.1
20260508042331 57 228 0.0 0.0 0.00 0.00 0.00 98 1012.4
20260508041827 57 228 0.0 0.0 0.00 0.00 0.00 98 1012.3
20260508041324 57 228 0.0 0.0 0.00 0.00 0.00 98 1012.2
20260508040820 57 228 0.0 0.0 0.00 0.00 0.00 98 1012.4
20260508040318 57 228 0.0 0.0 0.00 0.00 0.00 98 1012.4
20260508035815 57 228 0.0 0.0 0.00 0.00 0.00 98 1012.3
20260508035313 57 228 0.0 0.0 0.00 0.00 0.00 97 1012.3
20260508034809 57 228 0.0 0.0 0.00 0.00 0.00 97 1012.4
20260508034306 57 228 0.0 0.0 0.00 0.00 0.00 97 1012.4
20260508033803 58 228 0.0 0.0 0.00 0.00 0.00 97 1012.2
20260508033302 58 228 0.0 0.0 0.00 0.00 0.00 97 1012.0
20260508032759 58 228 0.0 0.0 0.00 0.00 0.00 97 1012.0
20260508032256 58 228 0.0 0.0 0.00 0.00 0.00 97 1012.1
20260508031752 58 228 0.0 0.0 0.00 0.00 0.00 97 1012.1
20260508031249 58 228 0.0 0.0 0.00 0.00 0.00 97 1012.1
20260508030745 58 228 0.0 0.0 0.00 0.00 0.00 97 1012.2
20260508030243 58 228 0.0 0.0 0.00 0.00 0.00 97 1012.2
20260508025739 59 228 0.0 0.0 0.00 0.00 0.00 97 1012.3
20260508025236 59 228 0.0 0.0 0.00 0.00 0.00 97 1012.1
20260508024732 59 228 0.0 0.0 0.00 0.00 0.00 97 1011.9
20260508024229 59 227 0.0 0.0 0.00 0.00 0.00 96 1011.8
20260508023726 59 227 0.0 0.0 0.00 0.00 0.00 96 1011.8
20260508023224 59 228 0.0 0.0 0.00 0.00 0.00 96 1011.8
20260508022719 59 228 0.0 0.0 0.00 0.00 0.00 96 1011.7
20260508022216 59 231 1.0 1.0 0.00 0.00 0.00 96 1011.8
20260508021713 59 226 0.0 0.0 0.00 0.00 0.00 96 1011.8
20260508021208 59 221 0.0 0.0 0.00 0.00 0.00 96 1011.6
20260508020706 59 227 0.0 0.0 0.00 0.00 0.00 96 1011.6
20260508020203 59 228 1.0 1.0 0.00 0.00 0.00 96 1011.3
20260508015700 59 228 0.0 1.0 0.00 0.00 0.00 96 1011.3
20260508015157 59 227 1.0 1.0 0.00 0.00 0.00 96 1011.3
20260508014654 59 226 0.0 1.0 0.00 0.00 0.00 95 1011.2
20260508014149 59 236 2.0 2.0 0.00 0.00 0.00 95 1011.1
20260508013646 59 232 1.0 2.0 0.00 0.00 0.00 96 1010.9
20260508013143 59 226 1.0 1.0 0.00 0.00 0.00 96 1010.9
20260508012641 59 227 0.0 0.0 0.00 0.00 0.00 96 1010.6
20260508012137 59 226 0.0 0.0 0.00 0.00 0.00 96 1010.4
20260508011636 59 215 0.0 0.0 0.00 0.00 0.00 96 1010.6
20260508011133 59 242 2.0 3.0 0.00 0.00 0.00 96 1010.8
20260508010630 59 231 0.0 0.0 0.00 0.00 0.00 96 1010.4
20260508010128 59 255 3.0 5.0 0.00 0.00 0.00 96 1010.3
20260508005624 59 228 1.0 1.0 0.00 0.00 0.00 96 1010.1
20260508005121 59 235 3.0 3.0 0.00 0.00 0.00 96 1010.1
20260508004616 59 227 1.0 1.0 0.00 0.00 0.00 95 1009.6
20260508004113 59 235 2.0 2.0 0.00 0.00 0.00 95 1010.0
20260508003610 60 228 1.0 2.0 0.00 0.00 0.00 94 1009.8
20260508003108 60 244 3.0 5.0 0.00 0.00 0.00 94 1009.7
20260508002604 60 229 2.0 2.0 0.00 0.00 0.00 94 1009.6
20260508002102 60 221 0.0 0.0 0.00 0.00 0.00 94 1009.3
20260508001556 60 227 1.0 1.0 0.00 0.00 0.00 94 1009.2
20260508001053 60 225 2.0 3.0 0.00 0.00 0.00 94 1009.2
20260508000549 61 231 2.0 2.0 0.00 0.00 0.00 94 1008.8
20260508000047 61 237 2.0 2.0 0.00 0.00 0.00 93 1009.0
20260507235543 62 230 1.0 1.0 0.00 0.00 0.00 95 1008.8
20260507235041 62 224 0.0 0.0 0.00 0.00 0.00 95 1008.6
20260507234537 63 251 3.0 3.0 0.00 0.00 0.00 95 1008.3
20260507234033 63 216 0.0 1.0 0.00 0.00 0.00 94 1008.3
20260507233530 64 228 1.0 1.0 0.00 0.00 0.00 93 1008.1
20260507233029 66 219 2.0 3.0 0.00 0.00 0.00 89 1008.1
20260507232525 68 234 3.0 3.0 0.00 0.00 0.00 81 1007.7
20260507232022 70 206 1.0 1.0 0.00 0.00 0.00 78 1007.3
20260507231518 73 228 5.0 8.0 0.00 0.00 0.00 74 1006.8
20260507231016 74 232 1.0 1.0 0.00 0.00 0.00 71 1006.6
20260507230513 74 214 0.0 1.0 0.00 0.00 0.00 70 1006.4
20260507230009 74 195 2.0 2.0 0.00 0.00 0.00 73 1006.3
20260507225504 74 232 0.0 0.0 0.00 0.00 0.00 75 1006.2
20260507225000 74 223 0.0 0.0 0.00 0.00 0.00 76 1006.4
20260507224456 73 216 0.0 0.0 0.00 0.00 0.00 76 1006.1
20260507223953 73 228 0.0 0.0 0.00 0.00 0.00 75 1005.9
20260507223449 73 245 1.0 1.0 0.00 0.00 0.00 76 1006.0
20260507222946 74 222 0.0 0.0 0.00 0.00 0.00 77 1006.0
20260507222443 74 231 0.0 0.0 0.00 0.00 0.00 75 1005.8
20260507221940 74 219 0.0 0.0 0.00 0.00 0.00 74 1005.7
20260507221436 74 217 0.0 0.0 0.00 0.00 0.00 74 1005.9
20260507220932 74 217 0.0 0.0 0.00 0.00 0.00 72 1005.9
20260507220431 75 212 0.0 1.0 0.00 0.00 0.00 72 1005.9
20260507215927 75 216 0.0 0.0 0.00 0.00 0.00 71 1005.5
20260507215423 75 193 1.0 1.0 0.00 0.00 0.00 70 1005.6
20260507214921 75 281 3.0 3.0 0.00 0.00 0.00 70 1005.6
20260507214419 75 212 0.0 0.0 0.00 0.00 0.00 72 1005.6
20260507213914 75 223 0.0 0.0 0.00 0.00 0.00 71 1005.6
20260507213410 75 212 0.0 0.0 0.00 0.00 0.00 71 1005.6
20260507212908 75 210 0.0 0.0 0.00 0.00 0.00 70 1005.6
20260507212403 75 244 1.0 1.0 0.00 0.00 0.00 71 1005.9
20260507211900 75 200 0.0 1.0 0.00 0.00 0.00 71 1005.8
20260507211356 75 216 0.0 0.0 0.00 0.00 0.00 70 1005.5
20260507210854 75 214 0.0 0.0 0.00 0.00 0.00 71 1005.8
20260507210350 76 180 0.0 0.0 0.00 0.00 0.00 72 1005.8
20260507205847 75 233 0.0 1.0 0.00 0.00 0.00 70 1005.5
20260507205344 75 231 1.0 1.0 0.00 0.00 0.00 70 1006.0
20260507204840 76 219 1.0 1.0 0.00 0.00 0.00 69 1005.8
20260507204337 77 210 0.0 0.0 0.00 0.00 0.00 68 1005.8
20260507203835 78 248 3.0 5.0 0.00 0.00 0.00 65 1005.8
20260507203333 78 261 1.0 1.0 0.00 0.00 0.00 64 1005.3
20260507202829 79 220 1.0 1.0 0.00 0.00 0.00 62 1005.6
20260507202325 78 214 0.0 0.0 0.00 0.00 0.00 65 1005.6
20260507201821 78 242 1.0 2.0 0.00 0.00 0.00 65 1005.8
20260507201317 78 195 1.0 1.0 0.00 0.00 0.00 66 1006.1
20260507200813 79 219 0.0 0.0 0.00 0.00 0.00 61 1005.8
20260507200309 79 216 0.0 0.0 0.00 0.00 0.00 62 1006.0
20260507195805 79 218 0.0 1.0 0.00 0.00 0.00 62 1006.0
20260507195305 80 201 0.0 0.0 0.00 0.00 0.00 64 1006.1
20260507194800 79 218 0.0 0.0 0.00 0.00 0.00 63 1006.3
20260507194256 77 209 1.0 1.0 0.00 0.00 0.00 71 1006.4
20260507193753 75 233 0.0 0.0 0.00 0.00 0.00 69 1006.3
20260507193250 77 223 0.0 0.0 0.00 0.00 0.00 70 1006.2
20260507192746 77 218 0.0 0.0 0.00 0.00 0.00 67 1006.6
20260507192243 78 215 0.0 1.0 0.00 0.00 0.00 67 1006.6
20260507191739 78 142 0.0 1.0 0.00 0.00 0.00 66 1006.7
20260507191236 78 286 2.0 2.0 0.00 0.00 0.00 65 1006.7
20260507190732 78 345 1.0 1.0 0.00 0.00 0.00 64 1006.8
20260507190231 78 284 1.0 1.0 0.00 0.00 0.00 65 1006.8
20260507185729 77 241 0.0 0.0 0.00 0.00 0.00 69 1006.9
20260507185226 76 244 0.0 0.0 0.00 0.00 0.00 70 1006.9